Time,TemperatureF,DewpointF,PressureIn,WindDirection,WindDirectionDegrees,WindSpeedMPH,WindSpeedGustMPH,Humidity,HourlyPrecipIn,Conditions,Clouds,dailyrainin,SoftwareType,DateUTC
2013-05-16 00:04:00,57.4,42.3,29.94,WSW,248,5.9,7.5,57,0.00,CLR,,0.00,WeatherDisplay:10.37,2013-05-16 07:04:00,
2013-05-16 00:09:00,57.4,42.3,29.94,WSW,248,5.9,7.5,57,0.00,CLR,,0.00,WeatherDisplay:10.37,2013-05-16 07:09:00,
2013-05-16 00:14:00,56.8,42.2,29.94,WSW,248,6.1,7.2,58,0.00,CLR,,0.00,WeatherDisplay:10.37,2013-05-16 07:14:00,
2013-05-16 00:19:00,56.8,42.2,29.94,West,270,5.8,5.8,58,0.00,CLR,,0.00,WeatherDisplay:10.37,2013-05-16 07:19:00,
2013-05-16 00:24:00,56.7,42.0,29.94,WSW,248,5.4,5.8,58,0.00,CLR,,0.00,WeatherDisplay:10.37,2013-05-16 07:24:00,
2013-05-16 00:29:00,56.7,42.0,29.94,West,270,5.2,7.4,58,0.00,CLR,,0.00,WeatherDisplay:10.37,2013-05-16 07:29:00,
2013-05-16 00:34:00,56.3,41.7,29.94,WSW,248,5.2,6.9,58,0.00,CLR,,0.00,WeatherDisplay:10.37,2013-05-16 07:34:00,
2013-05-16 00:39:00,56.3,42.1,29.94,SW,225,5.1,8.1,59,0.00,CLR,,0.00,WeatherDisplay:10.37,2013-05-16 07:39:00,
2013-05-16 00:44:00,56.3,41.7,29.94,SW,225,4.5,4.5,58,0.00,CLR,,0.00,WeatherDisplay:10.37,2013-05-16 07:44:00,
2013-05-16 00:49:00,55.8,41.6,29.94,West,270,4.6,5.8,59,0.00,CLR,,0.00,WeatherDisplay:10.37,2013-05-16 07:49:00,
2013-05-16 00:54:00,55.9,41.8,29.94,West,270,3.9,4.7,59,0.00,CLR,,0.00,WeatherDisplay:10.37,2013-05-16 07:54:00,
2013-05-16 00:59:00,55.6,41.5,29.94,SW,225,3.6,6.0,59,0.00,CLR,,0.00,WeatherDisplay:10.37,2013-05-16 07:59:00,
2013-05-16 01:04:00,55.4,41.3,29.94,SW,225,3.6,4.6,59,0.00,CLR,,0.00,WeatherDisplay:10.37,2013-05-16 08:04:00,
2013-05-16 01:09:00,55.2,41.1,29.94,SW,225,3.6,4.7,59,0.00,CLR,,0.00,WeatherDisplay:10.37,2013-05-16 08:09:00,
2013-05-16 01:14:00,55.2,41.6,29.94,SW,225,3.7,3.7,60,0.00,CLR,,0.00,WeatherDisplay:10.37,2013-05-16 08:14:00,
2013-05-16 01:19:00,55.0,41.4,29.94,SSW,202,3.5,3.5,60,0.00,CLR,,0.00,WeatherDisplay:10.37,2013-05-16 08:19:00,
2013-05-16 01:24:00,54.9,41.2,29.94,SW,225,3.1,4.6,60,0.00,CLR,,0.00,WeatherDisplay:10.37,2013-05-16 08:24:00,
2013-05-16 01:29:00,54.7,41.1,29.95,SW,225,3.0,5.8,60,0.00,CLR,,0.00,WeatherDisplay:10.37,2013-05-16 08:29:00,
2013-05-16 01:34:00,54.5,41.3,29.95,WSW,248,3.2,3.7,61,0.00,CLR,,0.00,WeatherDisplay:10.37,2013-05-16 08:34:00,
2013-05-16 01:39:00,54.5,41.3,29.95,SW,225,3.1,4.6,61,0.00,CLR,,0.00,WeatherDisplay:10.37,2013-05-16 08:39:00,
2013-05-16 01:44:00,54.3,41.1,29.95,SW,225,3.2,3.5,61,0.00,CLR,,0.00,WeatherDisplay:10.37,2013-05-16 08:44:00,
2013-05-16 01:49:00,54.1,41.0,29.94,SSW,202,2.9,2.9,61,0.00,CLR,,0.00,WeatherDisplay:10.37,2013-05-16 08:49:00,
2013-05-16 01:54:00,54.1,41.4,29.94,WSW,248,2.6,3.5,62,0.00,CLR,,0.00,WeatherDisplay:10.37,2013-05-16 08:54:00,
2013-05-16 01:59:00,54.0,41.2,29.94,WSW,248,2.0,2.8,62,0.00,CLR,,0.00,WeatherDisplay:10.37,2013-05-16 08:59:00,
2013-05-16 02:04:00,53.8,41.1,29.94,SW,225,2.3,4.9,62,0.00,SCT,,0.00,WeatherDisplay:10.37,2013-05-16 09:04:00,
2013-05-16 02:09:00,53.8,41.1,29.94,SW,225,2.4,2.4,62,0.00,SCT,,0.00,WeatherDisplay:10.37,2013-05-16 09:09:00,
2013-05-16 02:14:00,53.6,40.9,29.94,WSW,248,2.4,2.4,62,0.00,SCT,,0.00,WeatherDisplay:10.37,2013-05-16 09:14:00,
2013-05-16 02:19:00,53.8,41.1,29.94,WSW,248,1.5,2.3,62,0.00,SCT,,0.00,WeatherDisplay:10.37,2013-05-16 09:19:00,
2013-05-16 02:24:00,53.4,40.7,29.94,SW,225,0.6,0.0,62,0.00,SCT,,0.00,WeatherDisplay:10.37,2013-05-16 09:24:00,
2013-05-16 02:29:00,53.4,40.7,29.94,WSW,248,0.1,1.2,62,0.00,SCT,,0.00,WeatherDisplay:10.37,2013-05-16 09:29:00,
2013-05-16 02:34:00,53.1,40.4,29.94,WSW,248,0.2,1.3,62,0.00,SCT,,0.00,WeatherDisplay:10.37,2013-05-16 09:34:00,
2013-05-16 02:39:00,52.9,40.6,29.94,WSW,248,0.8,2.3,63,0.00,SCT,,0.00,WeatherDisplay:10.37,2013-05-16 09:39:00,
2013-05-16 02:44:00,52.7,40.5,29.94,WSW,248,1.3,2.3,63,0.00,SCT,,0.00,WeatherDisplay:10.37,2013-05-16 09:44:00,
2013-05-16 02:49:00,52.7,40.5,29.94,SW,225,0.8,0.0,63,0.00,SCT,,0.00,WeatherDisplay:10.37,2013-05-16 09:49:00,
2013-05-16 02:54:00,52.3,40.5,29.94,SW,225,0.2,0.0,64,0.00,SCT,,0.00,WeatherDisplay:10.37,2013-05-16 09:54:00,
2013-05-16 02:59:00,52.3,40.5,29.94,SSW,202,0.1,1.4,64,0.00,SCT,,0.00,WeatherDisplay:10.37,2013-05-16 09:59:00,
2013-05-16 03:04:00,52.2,40.3,29.94,South,180,0.3,2.3,64,0.00,SCT,,0.00,WeatherDisplay:10.37,2013-05-16 10:04:00,
2013-05-16 03:09:00,52.2,40.3,29.93,South,180,0.3,2.3,64,0.00,SCT,,0.00,WeatherDisplay:10.37,2013-05-16 10:09:00,
2013-05-16 03:14:00,51.8,40.0,29.93,SW,225,0.1,2.3,64,0.00,CLR,,0.00,WeatherDisplay:10.37,2013-05-16 10:14:00,
2013-05-16 03:19:00,51.4,39.7,29.93,South,180,0.0,0.0,64,0.00,CLR,,0.00,WeatherDisplay:10.37,2013-05-16 10:19:00,
2013-05-16 03:24:00,51.3,39.9,29.93,SW,225,0.3,2.6,65,0.00,CLR,,0.00,WeatherDisplay:10.37,2013-05-16 10:24:00,
2013-05-16 03:32:00,51.3,40.3,29.93,South,180,1.6,2.4,66,0.00,CLR,,0.00,WeatherDisplay:10.37,2013-05-16 10:32:00,
2013-05-16 03:37:00,51.6,40.6,29.93,South,180,2.0,2.8,66,0.00,CLR,,0.00,WeatherDisplay:10.37,2013-05-16 10:37:00,
2013-05-16 03:42:00,51.6,40.6,29.93,South,180,1.8,2.3,66,0.00,CLR,,0.00,WeatherDisplay:10.37,2013-05-16 10:42:00,
2013-05-16 03:47:00,51.8,40.8,29.93,South,180,1.7,2.3,66,0.00,CLR,,0.00,WeatherDisplay:10.37,2013-05-16 10:47:00,
2013-05-16 03:52:00,52.0,41.0,29.93,SSE,158,1.7,2.4,66,0.00,CLR,,0.00,WeatherDisplay:10.37,2013-05-16 10:52:00,
2013-05-16 03:57:00,52.2,41.1,29.93,SSE,158,1.8,2.3,66,0.00,CLR,,0.00,WeatherDisplay:10.37,2013-05-16 10:57:00,
2013-05-16 04:02:00,52.2,41.1,29.93,South,180,1.8,2.3,66,0.00,BKN,,0.00,WeatherDisplay:10.37,2013-05-16 11:02:00,
2013-05-16 04:07:00,52.2,41.1,29.93,South,180,1.7,2.6,66,0.00,BKN,,0.00,WeatherDisplay:10.37,2013-05-16 11:07:00,
2013-05-16 04:12:00,52.3,41.3,29.93,SSW,202,1.5,2.3,66,0.00,BKN,,0.00,WeatherDisplay:10.37,2013-05-16 11:12:00,
2013-05-16 04:17:00,52.7,41.7,29.93,SSW,202,2.0,3.2,66,0.00,BKN,,0.00,WeatherDisplay:10.37,2013-05-16 11:17:00,
2013-05-16 04:22:00,52.9,41.8,29.93,SW,225,2.2,3.5,66,0.00,BKN,,0.00,WeatherDisplay:10.37,2013-05-16 11:22:00,
2013-05-16 04:27:00,52.9,41.8,29.95,SSE,158,2.4,3.0,66,0.00,BKN,,0.00,WeatherDisplay:10.37,2013-05-16 11:27:00,
2013-05-16 04:32:00,53.1,41.6,29.95,South,180,2.3,3.5,65,0.00,BKN,,0.00,WeatherDisplay:10.37,2013-05-16 11:32:00,
2013-05-16 04:37:00,53.2,41.8,29.95,South,180,2.2,2.5,65,0.00,BKN,,0.00,WeatherDisplay:10.37,2013-05-16 11:37:00,
2013-05-16 04:42:00,53.4,41.9,29.95,SSE,158,2.2,3.5,65,0.00,BKN,,0.00,WeatherDisplay:10.37,2013-05-16 11:42:00,
2013-05-16 04:47:00,53.1,41.6,29.94,SSW,202,1.8,1.8,65,0.00,BKN,,0.00,WeatherDisplay:10.37,2013-05-16 11:47:00,
2013-05-16 04:52:00,53.1,41.6,29.94,SW,225,1.6,2.3,65,0.00,BKN,,0.00,WeatherDisplay:10.37,2013-05-16 11:52:00,
2013-05-16 04:57:00,53.1,41.6,29.94,SSW,202,1.7,2.3,65,0.00,BKN,,0.00,WeatherDisplay:10.37,2013-05-16 11:57:00,
2013-05-16 05:02:00,53.1,41.6,29.94,South,180,1.5,2.3,65,0.00,OVC,,0.00,WeatherDisplay:10.37,2013-05-16 12:02:00,
2013-05-16 05:07:00,52.9,41.4,29.95,SE,135,1.5,2.4,65,0.00,OVC,,0.00,WeatherDisplay:10.37,2013-05-16 12:07:00,
2013-05-16 05:12:00,52.9,41.8,29.95,SSE,158,1.8,4.6,66,0.00,OVC,,0.00,WeatherDisplay:10.37,2013-05-16 12:12:00,
2013-05-16 05:17:00,52.9,41.8,29.95,SSE,158,2.1,2.3,66,0.00,OVC,,0.00,WeatherDisplay:10.37,2013-05-16 12:17:00,
2013-05-16 05:22:00,52.9,41.8,29.95,South,180,1.8,2.3,66,0.00,OVC,,0.00,WeatherDisplay:10.37,2013-05-16 12:22:00,
2013-05-16 05:27:00,52.9,41.8,29.95,SSE,158,2.0,3.5,66,0.00,OVC,,0.00,WeatherDisplay:10.37,2013-05-16 12:27:00,
2013-05-16 05:32:00,53.1,42.0,29.95,South,180,2.1,2.3,66,0.00,OVC,,0.00,WeatherDisplay:10.37,2013-05-16 12:32:00,
2013-05-16 05:37:00,53.1,42.0,29.95,SSW,202,2.1,3.5,66,0.00,OVC,,0.00,WeatherDisplay:10.37,2013-05-16 12:37:00,
2013-05-16 05:42:00,53.4,42.3,29.95,SW,225,2.1,2.1,66,0.00,OVC,,0.00,WeatherDisplay:10.37,2013-05-16 12:42:00,
2013-05-16 05:47:00,53.4,42.3,29.95,South,180,2.0,2.6,66,0.00,OVC,,0.00,WeatherDisplay:10.37,2013-05-16 12:47:00,
2013-05-16 05:52:00,53.4,42.3,29.95,South,180,2.1,2.3,66,0.00,OVC,,0.00,WeatherDisplay:10.37,2013-05-16 12:52:00,
2013-05-16 05:57:00,53.4,42.3,29.95,South,180,2.1,2.2,66,0.00,OVC,,0.00,WeatherDisplay:10.37,2013-05-16 12:57:00,
2013-05-16 06:02:00,53.8,42.7,29.95,SSW,202,2.0,3.5,66,0.00,OVC,,0.00,WeatherDisplay:10.37,2013-05-16 13:02:00,
2013-05-16 06:07:00,53.8,42.7,29.95,SSW,202,2.0,3.5,66,0.00,OVC,,0.00,WeatherDisplay:10.37,2013-05-16 13:07:00,
2013-05-16 06:12:00,53.8,42.7,29.95,SSW,202,2.0,3.5,66,0.00,OVC,,0.00,WeatherDisplay:10.37,2013-05-16 13:12:00,
2013-05-16 06:17:00,54.3,43.2,29.95,SW,225,1.7,3.5,66,0.00,OVC,,0.00,WeatherDisplay:10.37,2013-05-16 13:17:00,
2013-05-16 06:22:00,54.5,43.4,29.95,SW,225,2.0,3.5,66,0.00,OVC,,0.00,WeatherDisplay:10.37,2013-05-16 13:22:00,
2013-05-16 06:27:00,54.5,43.4,29.98,SSW,202,2.1,2.9,66,0.00,OVC,,0.00,WeatherDisplay:10.37,2013-05-16 13:27:00,
2013-05-16 06:32:00,54.7,43.5,29.98,SW,225,1.8,2.3,66,0.00,OVC,,0.00,WeatherDisplay:10.37,2013-05-16 13:32:00,
2013-05-16 06:37:00,55.2,44.1,29.98,South,180,1.8,3.5,66,0.00,OVC,,0.00,WeatherDisplay:10.37,2013-05-16 13:37:00,
2013-05-16 06:42:00,55.0,43.9,29.98,SW,225,1.4,1.4,66,0.00,OVC,,0.00,WeatherDisplay:10.37,2013-05-16 13:42:00,
2013-05-16 06:47:00,55.2,44.1,29.97,SW,225,1.0,2.3,66,0.00,OVC,,0.00,WeatherDisplay:10.37,2013-05-16 13:47:00,
2013-05-16 06:52:00,55.6,44.4,29.97,SSW,202,1.3,1.3,66,0.00,OVC,,0.00,WeatherDisplay:10.37,2013-05-16 13:52:00,
2013-05-16 06:57:00,55.8,44.2,29.97,SW,225,0.9,0.0,65,0.00,OVC,,0.00,WeatherDisplay:10.37,2013-05-16 13:57:00,
2013-05-16 07:02:00,55.8,44.2,29.97,SW,225,0.5,1.2,65,0.00,OVC,,0.00,WeatherDisplay:10.37,2013-05-16 14:02:00,
2013-05-16 07:07:00,56.3,44.7,29.98,SW,225,0.5,2.0,65,0.00,OVC,,0.00,WeatherDisplay:10.37,2013-05-16 14:07:00,
2013-05-16 07:12:00,56.3,44.7,29.98,WSW,248,1.0,2.3,65,0.00,OVC,,0.00,WeatherDisplay:10.37,2013-05-16 14:12:00,
2013-05-16 07:17:00,56.7,44.6,29.98,WSW,248,1.6,2.6,64,0.00,OVC,,0.00,WeatherDisplay:10.37,2013-05-16 14:17:00,
2013-05-16 07:22:00,56.8,44.4,29.98,WSW,248,1.3,2.3,63,0.00,OVC,,0.00,WeatherDisplay:10.37,2013-05-16 14:22:00,
2013-05-16 07:27:00,57.4,44.5,29.98,WSW,248,1.0,2.4,62,0.00,OVC,,0.00,WeatherDisplay:10.37,2013-05-16 14:27:00,
2013-05-16 07:32:00,57.9,44.5,29.98,WNW,292,1.0,3.5,61,0.00,OVC,,0.00,WeatherDisplay:10.37,2013-05-16 14:32:00,
2013-05-16 07:37:00,58.1,44.7,29.98,WNW,292,1.2,1.3,61,0.00,OVC,,0.00,WeatherDisplay:10.37,2013-05-16 14:37:00,
2013-05-16 07:42:00,58.5,44.6,29.98,NW,315,1.2,3.1,60,0.00,OVC,,0.00,WeatherDisplay:10.37,2013-05-16 14:42:00,
2013-05-16 07:47:00,58.6,44.8,29.97,NW,315,1.2,2.3,60,0.00,OVC,,0.00,WeatherDisplay:10.37,2013-05-16 14:47:00,
2013-05-16 07:52:00,59.0,44.7,29.97,NW,315,1.3,1.8,59,0.00,OVC,,0.00,WeatherDisplay:10.37,2013-05-16 14:52:00,
2013-05-16 07:57:00,59.5,45.2,29.97,WSW,248,1.3,1.3,59,0.00,OVC,,0.00,WeatherDisplay:10.37,2013-05-16 14:57:00,
2013-05-16 08:02:00,59.9,45.1,29.97,WNW,292,1.4,3.5,58,0.00,OVC,,0.00,WeatherDisplay:10.37,2013-05-16 15:02:00,
2013-05-16 08:07:00,60.3,45.4,29.97,WSW,248,1.7,2.3,58,0.00,OVC,,0.00,WeatherDisplay:10.37,2013-05-16 15:07:00,
2013-05-16 08:12:00,60.4,45.1,29.97,West,270,1.7,2.3,57,0.00,OVC,,0.00,WeatherDisplay:10.37,2013-05-16 15:12:00,
2013-05-16 08:17:00,60.8,45.5,29.97,SW,225,2.0,2.3,57,0.00,OVC,,0.00,WeatherDisplay:10.37,2013-05-16 15:17:00,
2013-05-16 08:22:00,61.0,45.2,29.97,SW,225,1.2,0.0,56,0.00,OVC,,0.00,WeatherDisplay:10.37,2013-05-16 15:22:00,
2013-05-16 08:27:00,61.3,45.5,29.98,SW,225,0.3,0.0,56,0.00,OVC,,0.00,WeatherDisplay:10.37,2013-05-16 15:27:00,
2013-05-16 08:32:00,62.2,46.3,29.98,SSW,202,0.3,2.3,56,0.00,OVC,,0.00,WeatherDisplay:10.37,2013-05-16 15:32:00,
2013-05-16 08:37:00,63.1,46.7,29.98,SSW,202,0.6,2.1,55,0.00,OVC,,0.00,WeatherDisplay:10.37,2013-05-16 15:37:00,
2013-05-16 08:42:00,64.6,47.6,29.98,SSE,158,0.6,2.3,54,0.00,OVC,,0.00,WeatherDisplay:10.37,2013-05-16 15:42:00,
2013-05-16 08:47:00,65.1,47.6,29.98,West,270,0.9,3.2,53,0.00,OVC,,0.00,WeatherDisplay:10.37,2013-05-16 15:47:00,
2013-05-16 08:52:00,65.7,47.5,29.98,SSW,202,1.2,1.2,52,0.00,OVC,,0.00,WeatherDisplay:10.37,2013-05-16 15:52:00,
2013-05-16 08:57:00,66.0,47.9,29.98,WNW,292,1.2,2.0,52,0.00,OVC,,0.00,WeatherDisplay:10.37,2013-05-16 15:57:00,
2013-05-16 09:02:00,66.0,46.3,29.98,NW,315,1.2,2.3,49,0.00,OVC,,0.00,WeatherDisplay:10.37,2013-05-16 16:02:00,
2013-05-16 09:07:00,65.8,46.7,29.97,WSW,248,1.6,5.8,50,0.00,OVC,,0.00,WeatherDisplay:10.37,2013-05-16 16:07:00,
2013-05-16 09:12:00,66.0,46.3,29.97,South,180,2.5,4.6,49,0.00,OVC,,0.00,WeatherDisplay:10.37,2013-05-16 16:12:00,
2013-05-16 09:17:00,66.4,47.2,29.97,WSW,248,2.6,3.5,50,0.00,OVC,,0.00,WeatherDisplay:10.37,2013-05-16 16:17:00,
2013-05-16 09:22:00,67.1,47.3,29.97,SW,225,2.0,3.5,49,0.00,SCT,,0.00,WeatherDisplay:10.37,2013-05-16 16:22:00,
2013-05-16 09:27:00,67.1,46.7,29.99,NNW,338,1.8,1.8,48,0.00,SCT,,0.00,WeatherDisplay:10.37,2013-05-16 16:27:00,
2013-05-16 09:32:00,67.5,47.1,29.99,ENE,68,1.3,2.6,48,0.00,SCT,,0.00,WeatherDisplay:10.37,2013-05-16 16:32:00,
2013-05-16 09:37:00,67.5,47.1,29.99,East,90,1.0,1.2,48,0.00,SCT,,0.00,WeatherDisplay:10.37,2013-05-16 16:37:00,
2013-05-16 09:42:00,67.1,45.6,29.99,NNE,22,1.6,4.6,46,0.00,SCT,,0.00,WeatherDisplay:10.37,2013-05-16 16:42:00,
2013-05-16 09:47:00,67.1,46.2,29.95,NW,315,1.4,0.0,47,0.00,SCT,,0.00,WeatherDisplay:10.37,2013-05-16 16:47:00,
2013-05-16 09:52:00,67.6,47.2,29.95,SW,225,0.8,3.6,48,0.00,SCT,,0.00,WeatherDisplay:10.37,2013-05-16 16:52:00,
2013-05-16 09:57:00,67.6,46.7,29.95,SW,225,1.8,3.5,47,0.00,SCT,,0.00,WeatherDisplay:10.37,2013-05-16 16:57:00,
2013-05-16 10:02:00,68.0,48.1,29.95,West,270,2.3,3.5,49,0.00,SCT,,0.00,WeatherDisplay:10.37,2013-05-16 17:02:00,
2013-05-16 10:07:00,67.8,49.5,29.94,SW,225,1.4,2.6,52,0.00,SCT,,0.00,WeatherDisplay:10.37,2013-05-16 17:07:00,
2013-05-16 10:12:00,67.1,48.9,29.94,WSW,248,1.3,3.5,52,0.00,CLR,,0.00,WeatherDisplay:10.37,2013-05-16 17:12:00,
2013-05-16 10:17:00,66.7,48.0,29.94,WSW,248,2.2,5.2,51,0.00,CLR,,0.00,WeatherDisplay:10.37,2013-05-16 17:17:00,
2013-05-16 10:22:00,66.7,47.0,29.94,West,270,2.6,3.8,49,0.00,CLR,,0.00,WeatherDisplay:10.37,2013-05-16 17:22:00,
2013-05-16 10:27:00,66.4,46.6,29.93,SW,225,2.1,2.2,49,0.00,CLR,,0.00,WeatherDisplay:10.37,2013-05-16 17:27:00,
2013-05-16 10:32:00,67.1,45.6,29.93,SSE,158,1.5,3.5,46,0.00,CLR,,0.00,WeatherDisplay:10.37,2013-05-16 17:32:00,
2013-05-16 10:37:00,67.3,46.4,29.93,ENE,68,1.7,4.6,47,0.00,CLR,,0.00,WeatherDisplay:10.37,2013-05-16 17:37:00,
2013-05-16 10:42:00,67.8,46.8,29.93,SSW,202,1.3,2.3,47,0.00,CLR,,0.00,WeatherDisplay:10.37,2013-05-16 17:42:00,
2013-05-16 10:47:00,68.2,47.2,29.93,South,180,1.2,3.5,47,0.00,CLR,,0.00,WeatherDisplay:10.37,2013-05-16 17:47:00,
2013-05-16 10:52:00,68.7,47.7,29.93,SSW,202,1.8,3.5,47,0.00,CLR,,0.00,WeatherDisplay:10.37,2013-05-16 17:52:00,
2013-05-16 10:57:00,69.1,48.0,29.93,SSE,158,2.3,3.8,47,0.00,CLR,,0.00,WeatherDisplay:10.37,2013-05-16 17:57:00,
2013-05-16 11:02:00,69.3,47.6,29.93,WSW,248,1.6,2.3,46,0.00,CLR,,0.00,WeatherDisplay:10.37,2013-05-16 18:02:00,
2013-05-16 11:07:00,70.0,48.2,29.92,East,90,2.1,4.3,46,0.00,CLR,,0.00,WeatherDisplay:10.37,2013-05-16 18:07:00,
2013-05-16 11:13:00,70.3,48.0,29.92,ESE,112,2.2,2.2,45,0.00,CLR,,0.00,WeatherDisplay:10.37,2013-05-16 18:13:00,
2013-05-16 11:18:00,70.5,47.5,29.92,WSW,248,2.0,2.0,44,0.00,CLR,,0.00,WeatherDisplay:10.37,2013-05-16 18:18:00,
2013-05-16 11:23:00,70.7,46.5,29.92,NW,315,1.2,2.5,42,0.00,CLR,,0.00,WeatherDisplay:10.37,2013-05-16 18:23:00,
2013-05-16 11:28:00,70.7,46.5,29.92,West,270,1.2,3.5,42,0.00,CLR,,0.00,WeatherDisplay:10.37,2013-05-16 18:28:00,
2013-05-16 11:33:00,70.9,47.9,29.92,WSW,248,2.2,2.3,44,0.00,CLR,,0.00,WeatherDisplay:10.37,2013-05-16 18:33:00,
2013-05-16 11:38:00,71.2,47.6,29.92,SSW,202,2.3,2.3,43,0.00,CLR,,0.00,WeatherDisplay:10.37,2013-05-16 18:38:00,
2013-05-16 11:43:00,71.8,48.1,29.92,SE,135,2.2,4.9,43,0.00,CLR,,0.00,WeatherDisplay:10.37,2013-05-16 18:43:00,
2013-05-16 11:48:00,72.1,47.8,29.91,SW,225,3.3,4.6,42,0.00,CLR,,0.00,WeatherDisplay:10.37,2013-05-16 18:48:00,
2013-05-16 11:53:00,72.1,47.8,29.91,SSE,158,3.7,6.9,42,0.00,CLR,,0.00,WeatherDisplay:10.37,2013-05-16 18:53:00,
2013-05-16 11:58:00,72.1,47.8,29.91,South,180,3.5,3.5,42,0.00,CLR,,0.00,WeatherDisplay:10.37,2013-05-16 18:58:00,
2013-05-16 12:03:00,72.5,48.1,29.91,South,180,3.7,6.9,42,0.00,CLR,,0.00,WeatherDisplay:10.37,2013-05-16 19:03:00,
2013-05-16 12:08:00,72.5,48.1,29.90,SW,225,3.7,7.1,42,0.00,CLR,,0.00,WeatherDisplay:10.37,2013-05-16 19:08:00,
2013-05-16 12:13:00,72.3,47.3,29.90,SW,225,3.7,7.1,41,0.00,CLR,,0.00,WeatherDisplay:10.37,2013-05-16 19:13:00,
2013-05-16 12:18:00,72.0,46.3,29.90,South,180,3.5,3.5,40,0.00,CLR,,0.00,WeatherDisplay:10.37,2013-05-16 19:18:00,
2013-05-16 12:23:00,71.1,45.5,29.90,SSE,158,3.1,3.1,40,0.00,CLR,,0.00,WeatherDisplay:10.37,2013-05-16 19:23:00,
2013-05-16 12:28:00,70.9,44.7,29.90,WNW,292,1.6,3.7,39,0.00,CLR,,0.00,WeatherDisplay:10.37,2013-05-16 19:28:00,
2013-05-16 12:33:00,71.1,44.8,29.90,NNW,338,2.4,8.1,39,0.00,CLR,,0.00,WeatherDisplay:10.37,2013-05-16 19:33:00,
2013-05-16 12:38:00,71.1,44.8,29.90,ENE,68,3.0,3.5,39,0.00,CLR,,0.00,WeatherDisplay:10.37,2013-05-16 19:38:00,
2013-05-16 12:43:00,72.1,47.1,29.90,SW,225,2.1,3.6,41,0.00,CLR,,0.00,WeatherDisplay:10.37,2013-05-16 19:43:00,
2013-05-16 12:48:00,72.5,47.5,29.89,SSE,158,2.3,5.8,41,0.00,CLR,,0.00,WeatherDisplay:10.37,2013-05-16 19:48:00,
2013-05-16 12:53:00,73.0,45.9,29.89,East,90,2.8,3.5,38,0.00,CLR,,0.00,WeatherDisplay:10.37,2013-05-16 19:53:00,
2013-05-16 12:58:00,73.0,46.6,29.89,NE,45,2.2,5.8,39,0.00,CLR,,0.00,WeatherDisplay:10.37,2013-05-16 19:58:00,
2013-05-16 13:03:00,73.6,46.4,29.89,WSW,248,1.8,2.8,38,0.00,FEW,,0.00,WeatherDisplay:10.37,2013-05-16 20:03:00,
2013-05-16 13:08:00,73.8,47.3,29.87,SW,225,2.3,2.3,39,0.00,FEW,,0.00,WeatherDisplay:10.37,2013-05-16 20:08:00,
2013-05-16 13:13:00,74.1,47.6,29.87,West,270,2.5,3.5,39,0.00,FEW,,0.00,WeatherDisplay:10.37,2013-05-16 20:13:00,
2013-05-16 13:18:00,74.7,46.7,29.87,NW,315,2.0,2.3,37,0.00,FEW,,0.00,WeatherDisplay:10.37,2013-05-16 20:18:00,
2013-05-16 13:23:00,74.3,46.3,29.87,NW,315,2.2,3.7,37,0.00,FEW,,0.00,WeatherDisplay:10.37,2013-05-16 20:23:00,
2013-05-16 13:28:00,73.9,45.3,29.87,NNW,338,2.3,3.5,36,0.00,FEW,,0.00,WeatherDisplay:10.37,2013-05-16 20:28:00,
2013-05-16 13:33:00,73.0,44.5,29.87,NNE,22,2.2,3.5,36,0.00,FEW,,0.00,WeatherDisplay:10.37,2013-05-16 20:33:00,
2013-05-16 13:38:00,73.0,45.2,29.87,NNE,22,1.0,0.0,37,0.00,FEW,,0.00,WeatherDisplay:10.37,2013-05-16 20:38:00,
2013-05-16 13:43:00,73.6,46.4,29.87,SSE,158,1.0,2.3,38,0.00,FEW,,0.00,WeatherDisplay:10.37,2013-05-16 20:43:00,
2013-05-16 13:48:00,73.9,46.0,29.86,ENE,68,2.0,4.6,37,0.00,FEW,,0.00,WeatherDisplay:10.37,2013-05-16 20:48:00,
2013-05-16 13:53:00,74.3,46.3,29.86,East,90,2.3,3.5,37,0.00,FEW,,0.00,WeatherDisplay:10.37,2013-05-16 20:53:00,
2013-05-16 13:58:00,74.3,46.3,29.86,NNE,22,1.5,0.0,37,0.00,FEW,,0.00,WeatherDisplay:10.37,2013-05-16 20:58:00,
2013-05-16 14:03:00,75.0,47.7,29.86,East,90,1.3,5.8,38,0.00,BKN,,0.00,WeatherDisplay:10.37,2013-05-16 21:03:00,
2013-05-16 14:08:00,75.0,47.0,29.85,SE,135,2.1,4.6,37,0.00,BKN,,0.00,WeatherDisplay:10.37,2013-05-16 21:08:00,
2013-05-16 14:13:00,75.0,45.5,29.85,NNW,338,2.4,2.5,35,0.00,BKN,,0.00,WeatherDisplay:10.37,2013-05-16 21:13:00,
2013-05-16 14:18:00,74.8,45.3,29.85,North,0,2.6,4.6,35,0.00,BKN,,0.00,WeatherDisplay:10.37,2013-05-16 21:18:00,
2013-05-16 14:23:00,74.5,45.0,29.85,North,0,2.8,4.6,35,0.00,BKN,,0.00,WeatherDisplay:10.37,2013-05-16 21:23:00,
2013-05-16 14:28:00,74.7,45.2,29.84,West,270,2.3,4.9,35,0.00,BKN,,0.00,WeatherDisplay:10.37,2013-05-16 21:28:00,
2013-05-16 14:33:00,74.8,44.6,29.84,North,0,2.0,3.5,34,0.00,BKN,,0.00,WeatherDisplay:10.37,2013-05-16 21:33:00,
2013-05-16 14:38:00,75.0,46.2,29.84,West,270,2.0,2.3,36,0.00,BKN,,0.00,WeatherDisplay:10.37,2013-05-16 21:38:00,
2013-05-16 14:43:00,75.2,45.7,29.84,NW,315,1.2,1.6,35,0.00,BKN,,0.00,WeatherDisplay:10.37,2013-05-16 21:43:00,
2013-05-16 14:48:00,75.2,44.9,29.83,NNW,338,1.2,3.5,34,0.00,BKN,,0.00,WeatherDisplay:10.37,2013-05-16 21:48:00,
2013-05-16 14:53:00,75.7,46.1,29.83,WNW,292,1.2,0.0,35,0.00,BKN,,0.00,WeatherDisplay:10.37,2013-05-16 21:53:00,
2013-05-16 14:58:00,75.7,46.1,29.83,NW,315,1.4,2.6,35,0.00,BKN,,0.00,WeatherDisplay:10.37,2013-05-16 21:58:00,
2013-05-16 15:03:00,76.1,45.7,29.83,SSE,158,2.0,2.6,34,0.00,CLR,,0.00,WeatherDisplay:10.37,2013-05-16 22:03:00,
2013-05-16 15:08:00,76.5,46.0,29.83,East,90,2.0,2.0,34,0.00,CLR,,0.00,WeatherDisplay:10.37,2013-05-16 22:08:00,
2013-05-16 15:13:00,76.6,45.4,29.83,NE,45,1.7,5.8,33,0.00,CLR,,0.00,WeatherDisplay:10.37,2013-05-16 22:13:00,
2013-05-16 15:18:00,76.3,45.1,29.83,East,90,2.4,6.9,33,0.00,CLR,,0.00,WeatherDisplay:10.37,2013-05-16 22:18:00,
2013-05-16 15:23:00,76.1,45.7,29.83,East,90,3.7,3.9,34,0.00,CLR,,0.00,WeatherDisplay:10.37,2013-05-16 22:23:00,
2013-05-16 15:28:00,76.5,46.0,29.83,East,90,3.5,5.8,34,0.00,CLR,,0.00,WeatherDisplay:10.37,2013-05-16 22:28:00,
2013-05-16 15:33:00,76.6,45.4,29.83,NE,45,3.5,7.5,33,0.00,CLR,,0.00,WeatherDisplay:10.37,2013-05-16 22:33:00,
2013-05-16 15:38:00,76.6,45.4,29.83,ENE,68,4.7,5.8,33,0.00,CLR,,0.00,WeatherDisplay:10.37,2013-05-16 22:38:00,
2013-05-16 15:43:00,76.6,44.6,29.83,ENE,68,4.9,6.9,32,0.00,CLR,,0.00,WeatherDisplay:10.37,2013-05-16 22:43:00,
2013-05-16 15:48:00,76.3,42.6,29.82,NNW,338,4.3,4.6,30,0.00,CLR,,0.00,WeatherDisplay:10.37,2013-05-16 22:48:00,
2013-05-16 15:53:00,75.6,42.8,29.82,ENE,68,3.6,7.1,31,0.00,CLR,,0.00,WeatherDisplay:10.37,2013-05-16 22:53:00,
2013-05-16 15:58:00,75.2,42.5,29.82,East,90,4.3,8.3,31,0.00,CLR,,0.00,WeatherDisplay:10.37,2013-05-16 22:58:00,
2013-05-16 16:03:00,75.0,42.3,29.82,ENE,68,4.7,4.9,31,0.00,CLR,,0.00,WeatherDisplay:10.37,2013-05-16 23:03:00,
2013-05-16 16:08:00,74.8,43.8,29.83,NE,45,3.3,3.6,33,0.00,CLR,,0.00,WeatherDisplay:10.37,2013-05-16 23:08:00,
2013-05-16 16:13:00,75.0,44.0,29.83,ENE,68,2.9,4.6,33,0.00,CLR,,0.00,WeatherDisplay:10.37,2013-05-16 23:13:00,
2013-05-16 16:18:00,75.4,42.6,29.83,NNE,22,3.0,4.6,31,0.00,CLR,,0.00,WeatherDisplay:10.37,2013-05-16 23:18:00,
2013-05-16 16:23:00,75.7,42.9,29.83,NNE,22,2.8,3.5,31,0.00,CLR,,0.00,WeatherDisplay:10.37,2013-05-16 23:23:00,
2013-05-16 16:28:00,76.1,43.3,29.81,North,0,3.2,3.5,31,0.00,CLR,,0.00,WeatherDisplay:10.37,2013-05-16 23:28:00,
2013-05-16 16:33:00,76.3,44.2,29.81,SE,135,2.4,0.0,32,0.00,CLR,,0.00,WeatherDisplay:10.37,2013-05-16 23:33:00,
2013-05-16 16:38:00,76.8,43.0,29.81,North,0,1.0,2.3,30,0.00,CLR,,0.00,WeatherDisplay:10.37,2013-05-16 23:38:00,
2013-05-16 16:43:00,76.8,43.0,29.81,NNE,22,1.6,3.5,30,0.00,CLR,,0.00,WeatherDisplay:10.37,2013-05-16 23:43:00,
2013-05-16 16:48:00,77.2,44.2,29.80,NE,45,1.8,4.6,31,0.00,CLR,,0.00,WeatherDisplay:10.37,2013-05-16 23:48:00,
2013-05-16 16:53:00,77.5,43.6,29.80,NNE,22,1.6,2.3,30,0.00,CLR,,0.00,WeatherDisplay:10.37,2013-05-16 23:53:00,
2013-05-16 16:58:00,77.5,43.6,29.80,NNE,22,1.6,3.5,30,0.00,CLR,,0.00,WeatherDisplay:10.37,2013-05-16 23:58:00,
2013-05-16 17:03:00,77.2,42.5,29.80,East,90,2.1,7.4,29,0.00,CLR,,0.00,WeatherDisplay:10.37,2013-05-17 00:03:00,
2013-05-16 17:08:00,76.6,41.1,29.81,NNW,338,2.5,3.5,28,0.00,CLR,,0.00,WeatherDisplay:10.37,2013-05-17 00:08:00,
2013-05-16 17:13:00,76.5,41.8,29.81,NE,45,2.4,2.4,29,0.00,CLR,,0.00,WeatherDisplay:10.37,2013-05-17 00:13:00,
2013-05-16 17:18:00,76.5,41.8,29.81,East,90,3.0,9.2,29,0.00,CLR,,0.00,WeatherDisplay:10.37,2013-05-17 00:18:00,
2013-05-16 17:23:00,76.6,42.0,29.81,ENE,68,3.6,8.5,29,0.00,CLR,,0.00,WeatherDisplay:10.37,2013-05-17 00:23:00,
2013-05-16 17:28:00,76.6,42.0,29.80,East,90,4.4,5.8,29,0.00,CLR,,0.00,WeatherDisplay:10.37,2013-05-17 00:28:00,
2013-05-16 17:33:00,77.4,42.6,29.80,East,90,4.5,5.8,29,0.00,CLR,,0.00,WeatherDisplay:10.37,2013-05-17 00:33:00,
2013-05-16 17:38:00,77.4,41.7,29.80,ENE,68,4.0,4.6,28,0.00,CLR,,0.00,WeatherDisplay:10.37,2013-05-17 00:38:00,
2013-05-16 17:43:00,77.5,42.8,29.80,NNE,22,3.5,4.6,29,0.00,CLR,,0.00,WeatherDisplay:10.37,2013-05-17 00:43:00,
2013-05-16 17:48:00,77.9,42.2,29.79,East,90,3.2,4.9,28,0.00,CLR,,0.00,WeatherDisplay:10.37,2013-05-17 00:48:00,
2013-05-16 17:53:00,77.4,40.8,29.79,ENE,68,3.5,3.5,27,0.00,CLR,,0.00,WeatherDisplay:10.37,2013-05-17 00:53:00,
2013-05-16 17:58:00,77.2,39.6,29.79,ENE,68,2.6,4.6,26,0.00,CLR,,0.00,WeatherDisplay:10.37,2013-05-17 00:58:00,
2013-05-16 18:03:00,76.8,39.3,29.79,ENE,68,2.5,5.8,26,0.00,CLR,,0.00,WeatherDisplay:10.37,2013-05-17 01:03:00,
2013-05-16 18:08:00,76.8,40.3,29.79,East,90,2.9,4.6,27,0.00,CLR,,0.00,WeatherDisplay:10.37,2013-05-17 01:08:00,
2013-05-16 18:13:00,76.6,40.1,29.79,ESE,112,2.4,4.6,27,0.00,CLR,,0.00,WeatherDisplay:10.37,2013-05-17 01:13:00,
2013-05-16 18:18:00,76.6,40.1,29.79,ENE,68,3.3,3.5,27,0.00,CLR,,0.00,WeatherDisplay:10.37,2013-05-17 01:18:00,
2013-05-16 18:23:00,76.3,39.8,29.79,NNE,22,3.0,3.0,27,0.00,CLR,,0.00,WeatherDisplay:10.37,2013-05-17 01:23:00,
2013-05-16 18:28:00,76.1,39.7,29.78,ENE,68,2.3,2.3,27,0.00,CLR,,0.00,WeatherDisplay:10.37,2013-05-17 01:28:00,
2013-05-16 18:33:00,75.7,40.3,29.78,ENE,68,2.5,4.6,28,0.00,CLR,,0.00,WeatherDisplay:10.37,2013-05-17 01:33:00,
2013-05-16 18:38:00,75.6,40.2,29.78,NE,45,2.4,3.5,28,0.00,CLR,,0.00,WeatherDisplay:10.37,2013-05-17 01:38:00,
2013-05-16 18:43:00,75.4,40.9,29.78,East,90,2.3,3.6,29,0.00,CLR,,0.00,WeatherDisplay:10.37,2013-05-17 01:43:00,
2013-05-16 18:48:00,75.7,41.2,29.78,East,90,1.7,2.3,29,0.00,CLR,,0.00,WeatherDisplay:10.37,2013-05-17 01:48:00,
2013-05-16 18:53:00,75.7,40.3,29.78,East,90,0.7,0.0,28,0.00,CLR,,0.00,WeatherDisplay:10.37,2013-05-17 01:53:00,
2013-05-16 18:58:00,75.4,40.0,29.78,NNE,22,1.3,3.5,28,0.00,CLR,,0.00,WeatherDisplay:10.37,2013-05-17 01:58:00,
2013-05-16 19:03:00,74.8,39.5,29.78,NNE,22,1.5,2.3,28,0.00,CLR,,0.00,WeatherDisplay:10.37,2013-05-17 02:03:00,
2013-05-16 19:08:00,75.0,39.7,29.78,NNE,22,1.8,3.5,28,0.00,CLR,,0.00,WeatherDisplay:10.37,2013-05-17 02:08:00,
2013-05-16 19:13:00,75.0,39.7,29.78,ENE,68,1.8,2.3,28,0.00,CLR,,0.00,WeatherDisplay:10.37,2013-05-17 02:13:00,
2013-05-16 19:18:00,75.0,39.7,29.78,ENE,68,1.2,2.3,28,0.00,CLR,,0.00,WeatherDisplay:10.37,2013-05-17 02:18:00,
2013-05-16 19:23:00,74.5,40.1,29.78,ENE,68,0.5,2.3,29,0.00,CLR,,0.00,WeatherDisplay:10.37,2013-05-17 02:23:00,
2013-05-16 19:28:00,74.3,40.0,29.78,ENE,68,0.5,2.5,29,0.00,CLR,,0.00,WeatherDisplay:10.37,2013-05-17 02:28:00,
2013-05-16 19:33:00,73.8,40.4,29.78,ENE,68,1.3,2.6,30,0.00,CLR,,0.00,WeatherDisplay:10.37,2013-05-17 02:33:00,
2013-05-16 19:38:00,73.4,40.1,29.78,ENE,68,1.8,2.6,30,0.00,CLR,,0.00,WeatherDisplay:10.37,2013-05-17 02:38:00,
2013-05-16 19:43:00,73.0,39.8,29.78,NE,45,1.6,2.3,30,0.00,CLR,,0.00,WeatherDisplay:10.37,2013-05-17 02:43:00,
2013-05-16 19:48:00,72.9,40.4,29.79,NE,45,1.2,0.0,31,0.00,CLR,,0.00,WeatherDisplay:10.37,2013-05-17 02:48:00,
2013-05-16 19:53:00,72.7,40.3,29.79,NE,45,0.9,1.4,31,0.00,CLR,,0.00,WeatherDisplay:10.37,2013-05-17 02:53:00,
2013-05-16 19:58:00,72.5,40.1,29.79,NE,45,0.8,2.3,31,0.00,CLR,,0.00,WeatherDisplay:10.37,2013-05-17 02:58:00,
2013-05-16 20:03:00,72.3,40.8,29.79,ENE,68,1.2,2.3,32,0.00,CLR,,0.00,WeatherDisplay:10.37,2013-05-17 03:03:00,
2013-05-16 20:08:00,71.8,40.3,29.79,NE,45,1.4,2.3,32,0.00,CLR,,0.00,WeatherDisplay:10.37,2013-05-17 03:08:00,
2013-05-16 20:13:00,71.2,39.9,29.79,NE,45,1.2,0.0,32,0.00,CLR,,0.00,WeatherDisplay:10.37,2013-05-17 03:13:00,
2013-05-16 20:18:00,71.1,40.5,29.79,NNE,22,0.8,2.3,33,0.00,CLR,,0.00,WeatherDisplay:10.37,2013-05-17 03:18:00,
2013-05-16 20:23:00,70.7,40.2,29.79,NNE,22,0.9,1.3,33,0.00,CLR,,0.00,WeatherDisplay:10.37,2013-05-17 03:23:00,
2013-05-16 20:28:00,70.3,40.6,29.80,NE,45,0.3,0.0,34,0.00,CLR,,0.00,WeatherDisplay:10.37,2013-05-17 03:28:00,
2013-05-16 20:33:00,69.8,40.2,29.80,NE,45,0.0,0.0,34,0.00,CLR,,0.00,WeatherDisplay:10.37,2013-05-17 03:33:00,
2013-05-16 20:38:00,69.6,41.5,29.80,NE,45,0.0,0.0,36,0.00,CLR,,0.00,WeatherDisplay:10.37,2013-05-17 03:38:00,
2013-05-16 20:43:00,69.1,40.3,29.80,NNE,22,0.0,0.0,35,0.00,CLR,,0.00,WeatherDisplay:10.37,2013-05-17 03:43:00,
2013-05-16 20:48:00,68.7,40.7,29.80,NNE,22,0.1,1.2,36,0.00,CLR,,0.00,WeatherDisplay:10.37,2013-05-17 03:48:00,
2013-05-16 20:53:00,68.4,41.1,29.80,NE,45,0.2,1.2,37,0.00,CLR,,0.00,WeatherDisplay:10.37,2013-05-17 03:53:00,
2013-05-16 20:58:00,68.0,40.7,29.80,NE,45,0.3,0.0,37,0.00,CLR,,0.00,WeatherDisplay:10.37,2013-05-17 03:58:00,
2013-05-16 21:01:00,67.8,40.6,29.80,NE,45,0.3,0.0,37,0.00,CLR,,0.00,WeatherDisplay:10.37,2013-05-17 04:01:00,
2013-05-16 21:04:00,67.5,41.0,29.80,ENE,68,0.1,0.0,38,0.00,CLR,,0.00,WeatherDisplay:10.37,2013-05-17 04:04:00,
2013-05-16 21:09:00,66.9,40.5,29.80,ENE,68,0.0,0.0,38,0.00,CLR,,0.00,WeatherDisplay:10.37,2013-05-17 04:09:00,
2013-05-16 21:14:00,66.7,40.3,29.80,NE,45,0.0,0.0,38,0.00,CLR,,0.00,WeatherDisplay:10.37,2013-05-17 04:14:00,
2013-05-16 21:19:00,66.6,40.8,29.80,NNE,22,0.0,0.0,39,0.00,CLR,,0.00,WeatherDisplay:10.37,2013-05-17 04:19:00,
2013-05-16 21:24:00,66.6,40.8,29.80,NNE,22,0.6,1.2,39,0.00,CLR,,0.00,WeatherDisplay:10.37,2013-05-17 04:24:00,
2013-05-16 21:29:00,66.4,40.7,29.81,NNE,22,0.7,0.0,39,0.00,CLR,,0.00,WeatherDisplay:10.37,2013-05-17 04:29:00,
2013-05-16 21:34:00,66.4,40.7,29.81,NE,45,0.2,0.0,39,0.00,CLR,,0.00,WeatherDisplay:10.37,2013-05-17 04:34:00,
2013-05-16 21:39:00,65.8,40.8,29.81,NNE,22,0.0,0.0,40,0.00,CLR,,0.00,WeatherDisplay:10.37,2013-05-17 04:39:00,
2013-05-16 21:44:00,65.8,40.8,29.81,NW,315,1.0,2.3,40,0.00,CLR,,0.00,WeatherDisplay:10.37,2013-05-17 04:44:00,
2013-05-16 21:49:00,65.8,41.5,29.82,NW,315,2.0,3.5,41,0.00,CLR,,0.00,WeatherDisplay:10.37,2013-05-17 04:49:00,
2013-05-16 21:54:00,65.8,41.5,29.82,West,270,2.2,3.5,41,0.00,CLR,,0.00,WeatherDisplay:10.37,2013-05-17 04:54:00,
2013-05-16 21:59:00,65.8,42.1,29.82,West,270,2.4,4.9,42,0.00,CLR,,0.00,WeatherDisplay:10.37,2013-05-17 04:59:00,
2013-05-16 22:04:00,65.7,43.1,29.82,NW,315,3.2,4.6,44,0.00,CLR,,0.00,WeatherDisplay:10.37,2013-05-17 05:04:00,
2013-05-16 22:09:00,65.8,43.3,29.81,NW,315,3.5,3.5,44,0.00,CLR,,0.00,WeatherDisplay:10.37,2013-05-17 05:09:00,
2013-05-16 22:14:00,65.7,43.1,29.81,NW,315,3.0,4.6,44,0.00,CLR,,0.00,WeatherDisplay:10.37,2013-05-17 05:14:00,
2013-05-16 22:19:00,65.3,43.4,29.81,NW,315,2.9,4.6,45,0.00,CLR,,0.00,WeatherDisplay:10.37,2013-05-17 05:19:00,
2013-05-16 22:24:00,65.1,43.2,29.81,NW,315,3.0,4.6,45,0.00,CLR,,0.00,WeatherDisplay:10.37,2013-05-17 05:24:00,
2013-05-16 22:29:00,64.9,43.7,29.81,NW,315,3.0,3.7,46,0.00,CLR,,0.00,WeatherDisplay:10.37,2013-05-17 05:29:00,
2013-05-16 22:34:00,64.9,43.7,29.81,NW,315,2.6,2.6,46,0.00,CLR,,0.00,WeatherDisplay:10.37,2013-05-17 05:34:00,
2013-05-16 22:39:00,64.4,43.2,29.81,NW,315,2.3,3.5,46,0.00,CLR,,0.00,WeatherDisplay:10.37,2013-05-17 05:39:00,
2013-05-16 22:44:00,64.4,43.2,29.81,NW,315,2.3,3.5,46,0.00,CLR,,0.00,WeatherDisplay:10.37,2013-05-17 05:44:00,
2013-05-16 22:49:00,64.2,43.6,29.80,NNW,338,2.3,2.6,47,0.00,CLR,,0.00,WeatherDisplay:10.37,2013-05-17 05:49:00,
2013-05-16 22:54:00,63.9,43.2,29.80,NW,315,1.7,2.4,47,0.00,CLR,,0.00,WeatherDisplay:10.37,2013-05-17 05:54:00,
2013-05-16 22:59:00,63.7,43.1,29.80,NW,315,1.6,2.3,47,0.00,CLR,,0.00,WeatherDisplay:10.37,2013-05-17 05:59:00,
2013-05-16 23:04:00,63.5,42.9,29.80,NNW,338,1.7,2.3,47,0.00,CLR,,0.00,WeatherDisplay:10.37,2013-05-17 06:04:00,
2013-05-16 23:09:00,63.1,42.6,29.80,NNW,338,1.5,2.3,47,0.00,CLR,,0.00,WeatherDisplay:10.37,2013-05-17 06:09:00,
2013-05-16 23:14:00,63.1,43.1,29.80,NNW,338,1.0,1.6,48,0.00,CLR,,0.00,WeatherDisplay:10.37,2013-05-17 06:14:00,
2013-05-16 23:19:00,62.8,42.8,29.80,NNW,338,1.2,1.5,48,0.00,CLR,,0.00,WeatherDisplay:10.37,2013-05-17 06:19:00,
2013-05-16 23:24:00,62.8,42.8,29.80,NNW,338,1.6,2.3,48,0.00,CLR,,0.00,WeatherDisplay:10.37,2013-05-17 06:24:00,
2013-05-16 23:29:00,62.4,43.0,29.81,NNW,338,2.0,3.5,49,0.00,CLR,,0.00,WeatherDisplay:10.37,2013-05-17 06:29:00,
2013-05-16 23:34:00,62.4,43.0,29.81,NNW,338,2.3,2.3,49,0.00,CLR,,0.00,WeatherDisplay:10.37,2013-05-17 06:34:00,
2013-05-16 23:39:00,62.4,43.0,29.81,NNW,338,2.2,2.3,49,0.00,CLR,,0.00,WeatherDisplay:10.37,2013-05-17 06:39:00,
2013-05-16 23:44:00,62.4,43.0,29.81,NNW,338,2.0,2.3,49,0.00,CLR,,0.00,WeatherDisplay:10.37,2013-05-17 06:44:00,
2013-05-16 23:49:00,62.4,43.0,29.81,NNW,338,2.1,3.5,49,0.00,CLR,,0.00,WeatherDisplay:10.37,2013-05-17 06:49:00,
2013-05-16 23:54:00,62.4,43.0,29.81,NNW,338,2.1,3.5,49,0.00,CLR,,0.00,WeatherDisplay:10.37,2013-05-17 06:54:00,
2013-05-16 23:59:00,62.1,42.1,29.81,NNW,338,2.3,3.9,48,0.00,CLR,,0.00,WeatherDisplay:10.37,2013-05-17 06:59:00,